Карточка аэропорта UWLW

Внимание!
Информация на этой странице в стадии наполнения.
Если вы не увидели какой-то информации, или заметили неточность - пожалуйста сообщите нам!
Спасибо!
Команда RU-STAFF
Название аэропортаВосточный
Название аэропорта (англ.)Vostochny
Превышение252 ft. (76.8 m.)
Координаты54°24', 48°48'
Высота перехода900m
Эшелон переходаQFE>=726mm:FL050; QFE<726:FL060
Коды ответчика6725-6727
Зона ОрВДСамара РПИ (UWWW)
Данные METARUWLW 230400Z 03003MPS 9999 BKN029 15/13 Q1011 R02/CLRD60 NOSIG RMK QFE751/1002
Проноз погоды (TAF)UWLW 230153Z 2303/2403 04003G09MPS 9999 BKN020 TX20/2312Z TN13/2401Z TEMPO 2303/2315 02007G13MPS -SHRA BKN007 BKN016CB BECMG 2316/2318 35003MPS
NOTAMshow/hide NOTAM
AWOS   TABLE

Информация о ВПП

ВПП Длина ВПП (м.) Покрытие Курс ВПП Частота ILS
025000Железобетон20110.1
205000Железобетон200110.1

Диспетчерские позиции


Сценарии



Спутниковое изображение